Location: Croisilles
(50.1998°N, 2.8793°E)
Time: 19:23:33
(UTC+00:00)

Okean 1-7 Rocket - Pass Details

Date: 21 January 2021
Orbit: 615 x 650 km, 82.5° (Epoch: 02 March)

Event Time Altitude Azimuth Distance (km) Brightness Sun altitude
Rises 17:56:22 0° 181° (S) 2,944 7.2 -14.5°
Reaches altitude 10° 17:58:37 10° 179° (S) 2,043 6.4 -14.8°
Maximum altitude 18:03:07 68° 97° (E) 703 3.6 -15.5°
Drops below altitude 10° 18:07:41 10° 15° (NNE) 2,068 6.0 -16.2°
Enters shadow 18:09:38 - 13° (NNE) 2,849 6.7 -16.5°
